Regional Weather Roundup
Issued by NWS

Home | Current Version | Previous Version | Graphics & Text | Print | Product List | Glossary On
Versions: 1 2 3 4 5 6 7 8 9 10 11 12 13 14 15 16 17 18 19 20 21 22 23 24 25 26 27 28 29 30 31 32 33 34 35 36 37 38 39 40 41 42 43 44 45 46 47 48 49 50
000
ASUS43 KTOP 230559
RWRKS

WEATHER ROUNDUP FOR KANSAS
NATIONAL WEATHER SERVICE GOODLAND KS
100 AM CDT SAT JUL 23 2016

NOTE:  "FAIR" INDICATES FEW OR NO CLOUDS BELOW 12,000 FEET WITH NO
SIGNIFICANT WEATHER AND/OR OBSTRUCTIONS TO VISIBILITY.

KSZ001>006-013>018-027>032-041>047-230700-
NORTHWEST KANSAS

CITY           SKY/WX    TMP DP  RH WIND       PRES   REMARKS
GOODLAND       CLOUDY    81  60  48 S10       29.99F
6HR MIN TEMP:  77; 6HR MAX TEMP:  99; 6HR PCP: TRACE;

HAYS           CLOUDY    84  59  42 S10       29.92S
HILL CITY      CLOUDY    86  62  44 S13G22    29.92R
6HR MIN TEMP:  79; 6HR MAX TEMP:  96;

RUSSELL        CLOUDY    86  61  42 S15       29.88F
6HR MIN TEMP:  85; 6HR MAX TEMP: 102;

$$

KSZ061>065-074>080-084>089-230700-
SOUTHWEST KANSAS

CITY           SKY/WX    TMP DP  RH WIND       PRES   REMARKS
DODGE CITY     CLEAR     77  60  55 S7        29.97S
6HR MIN TEMP:  77; 6HR MAX TEMP:  98;

ELKHART          N/A     81  54  39 S12         N/A
GARDEN CITY    CLEAR     75  61  61 S6        29.96F
6HR MIN TEMP:  75; 6HR MAX TEMP:  96;

GREAT BEND     CLOUDY    86  61  42 S15       29.92S
LIBERAL        CLOUDY    81  55  41 S12       30.00S
$$

KSZ066>073-081>083-090>101-230700-
SOUTHEAST KANSAS

CITY           SKY/WX    TMP DP  RH WIND       PRES   REMARKS
CHANUTE        CLEAR     81  72  74 SE8       29.97S
6HR MIN TEMP:  79; 6HR MAX TEMP:  94;

COFFEYVILLE    CLEAR     80  70  71 SE6       29.96S
6HR MIN TEMP:  80; 6HR MAX TEMP:  98;

HUTCHINSON     CLEAR     83  65  54 S8        29.93R
6HR MIN TEMP:  83; 6HR MAX TEMP: 102;

NEWTON         CLEAR     82  69  64 SE10      29.96R
PARSONS        CLEAR     80  71  74 CALM      29.97F
6HR MIN TEMP:  80; 6HR MAX TEMP:  95; 6HR PCP: TRACE;

WICHITA INTL   CLEAR     83  68  60 S9        29.94R
6HR MIN TEMP:  83; 6HR MAX TEMP:  99;

WICHITA JABRA  CLEAR     82  69  64 S10       29.95R
6HR MIN TEMP:  82; 6HR MAX TEMP:  97;

WINFIELD       CLEAR     82  69  64 S10       29.96S
6HR MIN TEMP:  82; 6HR MAX TEMP:  96;

$$

KSZ007>012-019>026-033>040-048>060-102>105-230700-
NORTHEAST KANSAS

CITY           SKY/WX    TMP DP  RH WIND       PRES   REMARKS
CONCORDIA      MOCLDY    83  69  62 S16       29.88F
6HR MIN TEMP:  76; 6HR MAX TEMP:  84;

EMPORIA        CLEAR     82  71  69 S12       29.96R
6HR MIN TEMP:  82; 6HR MAX TEMP:  95;

LAWRENCE       PTCLDY    78  73  84 SE7       29.96S
6HR MIN TEMP:  78; 6HR MAX TEMP:  93;

MANHATTAN      CLOUDY    87  71  58 S8        29.92R
6HR MIN TEMP:  85; 6HR MAX TEMP:  91;

OLATHE IND     CLEAR     80  73  79 S6        29.99R
6HR MIN TEMP:  80; 6HR MAX TEMP:  95;

OLATHE EXE     CLEAR     80  72  76 S7        29.99R
6HR MIN TEMP:  80; 6HR MAX TEMP:  91;

SALINA         CLEAR     87  68  52 S12       29.90R
6HR MIN TEMP:  87; 6HR MAX TEMP:  98;

TOPEKA BILLARD PTCLDY    85  70  60 S8        29.94S
6HR MIN TEMP:  85; 6HR MAX TEMP:  96;

TOPEKA FORBES  CLOUDY    84  71  65 SE9       29.95S
6HR MIN TEMP:  84; 6HR MAX TEMP:  96;

$$



USA.gov is the U.S. government's official web portal to all federal, state and local government web resources and services.